EW7038 Weather Reports


time (UTC)temp
C
wind
direction
speed
KPH
gust
KPH
rain 1hr
cm
rain 24hr
cm
rain mn
cm
humidity
%
barometer
mb
20260505202306 18 259 25.7 48.3 0.00 0.03 0.03 52 1012.3
20260505201803 18 279 22.5 48.3 0.00 0.03 0.03 52 1012.3
20260505201304 17 277 22.5 46.7 0.00 0.03 0.03 52 1012.3
20260505200804 17 259 20.9 49.9 0.00 0.03 0.03 52 1012.4
20260505200304 17 269 25.7 46.7 0.00 0.03 0.03 52 1012.4
20260505195804 17 260 25.7 49.9 0.00 0.03 0.03 53 1012.5
20260505194304 17 268 22.5 41.8 0.00 0.03 0.03 53 1012.6
20260505193804 17 292 19.3 56.3 0.00 0.03 0.03 53 1012.6
20260505193304 17 269 20.9 48.3 0.00 0.03 0.03 54 1012.8
20260505192803 17 285 22.5 56.3 0.00 0.03 0.03 54 1012.9
20260505192305 17 275 25.7 41.8 0.00 0.03 0.03 54 1012.8
20260505191804 17 277 20.9 45.1 0.00 0.03 0.03 54 1012.7
20260505190804 16 286 24.1 41.8 0.00 0.03 0.03 54 1012.7
20260505185804 16 271 22.5 40.2 0.00 0.03 0.03 54 1012.8
20260505185305 16 278 22.5 46.7 0.00 0.03 0.03 56 1012.9
20260505184804 16 280 27.4 49.9 0.00 0.03 0.03 55 1012.9
20260505184304 16 283 24.1 48.3 0.00 0.03 0.03 55 1012.8
20260505183803 16 280 20.9 53.1 0.00 0.03 0.03 55 1013.0
20260505182306 16 267 22.5 46.7 0.00 0.03 0.03 56 1013.0
20260505181304 15 289 29.0 49.9 0.00 0.03 0.03 57 1012.9
20260505180804 15 264 25.7 46.7 0.00 0.03 0.03 58 1013.1
20260505180304 15 267 24.1 61.2 0.00 0.03 0.03 58 1013.1
20260505175305 15 290 27.4 45.1 0.00 0.03 0.03 58 1013.1
20260505174804 15 273 27.4 45.1 0.00 0.03 0.03 58 1013.2
20260505174303 15 271 25.7 46.7 0.00 0.03 0.03 59 1013.1
20260505173804 15 266 29.0 53.1 0.00 0.03 0.03 59 1013.0
20260505173304 15 279 24.1 48.3 0.00 0.03 0.03 59 1013.1
20260505172804 15 274 24.1 49.9 0.00 0.03 0.03 60 1013.1
20260505172306 15 281 27.4 49.9 0.00 0.03 0.03 60 1013.1
20260505171804 15 267 27.4 51.5 0.00 0.03 0.03 60 1013.1
20260505171304 15 266 22.5 46.7 0.00 0.03 0.03 60 1013.2
20260505170804 15 281 25.7 53.1 0.00 0.03 0.03 61 1013.0
20260505170304 15 274 24.1 40.2 0.00 0.03 0.03 61 1013.1
20260505165804 15 276 19.3 48.3 0.00 0.03 0.03 61 1013.0
20260505165306 14 273 27.4 46.7 0.00 0.03 0.03 61 1013.0
20260505164804 14 280 19.3 48.3 0.00 0.03 0.03 62 1013.0
20260505164304 14 268 22.5 51.5 0.00 0.03 0.03 62 1013.0
20260505163804 14 282 24.1 41.8 0.00 0.03 0.03 62 1013.0
20260505163304 14 264 25.7 49.9 0.00 0.03 0.03 62 1013.0
20260505162803 14 239 27.4 48.3 0.00 0.03 0.03 62 1012.8
20260505161804 14 272 19.3 37.0 0.00 0.03 0.03 62 1012.9
20260505161304 14 255 27.4 46.7 0.00 0.03 0.03 62 1012.9
20260505160805 14 246 29.0 49.9 0.00 0.03 0.03 62 1012.8
20260505160304 14 275 19.3 46.7 0.00 0.03 0.03 63 1012.9
20260505153304 13 271 25.7 49.9 0.00 0.03 0.03 63 1012.7
20260505152804 13 264 29.0 41.8 0.00 0.03 0.03 63 1012.6
20260505151804 13 277 24.1 49.9 0.00 0.03 0.03 63 1012.6
20260505151305 13 276 22.5 45.1 0.00 0.03 0.03 64 1012.5
20260505150805 13 279 22.5 51.5 0.00 0.03 0.03 64 1012.5
20260505150304 13 281 25.7 48.3 0.00 0.03 0.03 64 1012.5
20260505140304 13 270 22.5 41.8 0.00 0.03 0.03 65 1012.0
20260505130304 13 267 30.6 45.1 0.00 0.03 0.03 64 1011.5
20260505124304 13 276 24.1 45.1 0.00 0.03 0.03 65 1011.3
20260505123804 13 271 27.4 45.1 0.00 0.03 0.03 63 1011.3
20260505123304 13 268 29.0 57.9 0.00 0.03 0.03 64 1011.2
20260505122804 13 270 29.0 49.9 0.00 0.03 0.03 62 1011.1
20260505122305 13 279 22.5 49.9 0.00 0.03 0.03 63 1011.2
20260505121804 13 262 22.5 40.2 0.00 0.03 0.03 64 1011.3
20260505121303 13 266 24.1 41.8 0.00 0.03 0.03 63 1011.0
20260505120804 13 279 25.7 51.5 0.00 0.03 0.03 63 1011.1
20260505120305 13 267 25.7 51.5 0.00 0.03 0.03 63 1011.0
20260505115305 13 257 25.7 51.5 0.00 0.03 0.03 63 1011.0
20260505114804 13 268 22.5 45.1 0.00 0.03 0.03 63 1010.9
20260505114304 14 261 25.7 46.7 0.00 0.03 0.03 62 1010.9
20260505113802 14 274 24.1 48.3 0.00 0.03 0.03 62 1010.9
20260505113303 14 278 22.5 45.1 0.00 0.03 0.03 62 1010.8
20260505112803 14 287 29.0 53.1 0.00 0.00 0.00 60 1010.9
20260505112305 14 282 29.0 57.9 0.00 0.00 0.00 61 1010.8
20260505111803 14 270 22.5 49.9 0.00 0.00 0.00 61 1010.8
20260505111303 14 270 24.1 48.3 0.00 0.00 0.00 61 1010.8
20260505110803 14 280 22.5 45.1 0.00 0.00 0.00 61 1010.7
20260505110303 14 258 22.5 46.7 0.00 0.00 0.00 61 1010.7
20260505101803 15 275 29.0 49.9 0.00 0.00 0.00 59 1010.4
20260505101303 15 251 20.9 46.7 0.00 0.00 0.00 61 1010.5
20260505100803 15 276 27.4 49.9 0.00 0.00 0.00 59 1010.3
20260505100303 15 278 27.4 49.9 0.00 0.00 0.00 58 1010.4
20260505095304 15 281 24.1 46.7 0.00 0.00 0.00 59 1010.2
20260505094803 15 267 24.1 53.1 0.00 0.00 0.00 58 1010.3
20260505094302 15 267 24.1 46.7 0.00 0.00 0.00 58 1010.1
20260505093803 15 283 22.5 41.8 0.00 0.00 0.00 59 1010.2
20260505093303 15 291 27.4 49.9 0.00 0.00 0.00 57 1009.9
20260505092305 15 274 22.5 51.5 0.00 0.00 0.00 59 1010.0
20260505091802 15 272 22.5 40.2 0.00 0.00 0.00 59 1010.1
20260505091303 16 276 25.7 48.3 0.00 0.00 0.00 57 1010.0
20260505090802 16 263 20.9 40.2 0.00 0.00 0.00 59 1009.9
20260505090303 16 287 25.7 48.3 0.00 0.00 0.00 58 1010.0
20260505085802 16 280 24.1 48.3 0.00 0.00 0.00 58 1009.8
20260505084802 16 286 20.9 38.6 0.00 0.00 0.00 58 1009.7
20260505084303 16 268 22.5 41.8 0.00 0.00 0.00 58 1009.6
20260505083303 16 269 17.7 45.1 0.00 0.00 0.00 57 1009.7
20260505082803 17 266 16.1 37.0 0.00 0.00 0.00 57 1009.7
20260505082304 17 276 22.5 37.0 0.00 0.00 0.00 56 1009.7
20260505081803 17 256 17.7 33.8 0.00 0.00 0.00 56 1009.7
20260505081303 17 253 19.3 37.0 0.00 0.00 0.00 57 1009.6
20260505080802 17 255 14.5 32.2 0.00 0.00 0.00 56 1009.5
20260505080303 17 280 17.7 35.4 0.00 0.00 0.00 56 1009.5
20260505075803 17 280 16.1 33.8 0.00 0.00 0.00 56 1009.5
20260505075304 17 274 14.5 38.6 0.00 0.00 0.00 57 1009.3
20260505074303 17 263 16.1 27.4 0.00 0.00 0.00 57 1009.3
20260505073803 17 271 14.5 40.2 0.00 0.00 0.00 58 1009.3
20260505073303 17 270 17.7 38.6 0.00 0.00 0.00 58 1009.3
20260505072803 18 236 14.5 32.2 0.00 0.00 0.00 58 1009.2
20260505072305 18 278 17.7 33.8 0.00 0.00 0.00 57 1009.1
20260505071303 18 272 16.1 37.0 0.00 0.00 0.00 57 1009.1
20260505070802 18 292 16.1 33.8 0.00 0.00 0.00 57 1009.0
20260505070303 18 280 14.5 27.4 0.00 0.00 0.00 57 1009.0
20260505065803 18 265 16.1 29.0 0.00 0.00 0.00 58 1009.0
20260505065304 18 273 19.3 35.4 0.00 0.00 0.00 56 1008.9
20260505064804 18 274 9.7 27.4 0.00 0.00 0.00 58 1009.0
20260505064302 18 264 16.1 38.6 0.00 0.00 0.00 57 1008.9
20260505063302 18 279 19.3 35.4 0.00 0.00 0.00 57 1008.8
20260505062803 18 265 14.5 38.6 0.00 0.00 0.00 58 1008.8
20260505062304 18 276 14.5 37.0 0.00 0.00 0.00 57 1008.8
20260505061803 18 275 17.7 33.8 0.00 0.00 0.00 56 1008.7
20260505061303 18 272 17.7 32.2 0.00 0.00 0.00 57 1008.6
20260505060303 18 261 22.5 41.8 0.00 0.00 0.00 56 1008.6
20260505055803 18 272 16.1 40.2 0.00 0.00 0.00 56 1008.7
20260505055304 19 268 17.7 37.0 0.00 0.00 0.00 55 1008.7
20260505053803 19 275 14.5 32.2 0.00 0.00 0.00 55 1008.6
20260505053303 19 274 16.1 33.8 0.00 0.00 0.00 55 1008.5
20260505052304 19 274 16.1 32.2 0.00 0.00 0.00 55 1008.5
20260505051303 19 275 17.7 33.8 0.00 0.00 0.00 55 1008.5
20260505050802 19 271 19.3 40.2 0.00 0.00 0.00 54 1008.4
20260505050302 19 298 12.9 32.2 0.00 0.00 0.00 55 1008.4
20260505041302 20 265 14.5 29.0 0.00 0.00 0.00 52 1007.8
20260505040803 20 264 16.1 32.2 0.00 0.00 0.00 51 1007.7
20260505040303 20 267 19.3 35.4 0.00 0.00 0.00 51 1007.6
20260505035802 20 262 14.5 32.2 0.00 0.00 0.00 50 1007.6
20260505035304 20 254 19.3 32.2 0.00 0.00 0.00 50 1007.6
20260505034803 20 264 11.3 32.2 0.00 0.00 0.00 50 1007.5
20260505034303 20 282 16.1 38.6 0.00 0.00 0.00 49 1007.4
20260505033802 20 265 16.1 33.8 0.00 0.00 0.00 49 1007.4
20260505033303 20 295 19.3 40.2 0.00 0.00 0.00 49 1007.3
20260505032802 20 264 14.5 32.2 0.00 0.00 0.00 48 1007.1
20260505032304 20 281 14.5 35.4 0.00 0.00 0.00 48 1007.1
20260505031802 20 247 11.3 29.0 0.00 0.00 0.00 48 1007.0
20260505031303 20 306 9.7 22.5 0.00 0.00 0.00 48 1007.0
20260505030803 20 268 19.3 37.0 0.00 0.00 0.00 47 1006.8
20260505025803 20 309 12.9 32.2 0.00 0.00 0.00 47 1006.6
20260505025304 20 311 11.3 37.0 0.00 0.00 0.00 47 1006.6
20260505024803 21 283 14.5 38.6 0.00 0.00 0.00 47 1006.5
20260505023804 21 308 12.9 38.6 0.00 0.00 0.00 46 1006.4
20260505022304 21 305 14.5 29.0 0.00 0.00 0.00 45 1006.3
20260505020303 21 304 11.3 25.7 0.00 0.00 0.00 45 1006.4
20260505015803 21 299 14.5 32.2 0.00 0.00 0.00 44 1006.4
20260505015304 22 280 11.3 32.2 0.00 0.00 0.00 44 1006.5
20260505014802 22 280 11.3 29.0 0.00 0.00 0.00 44 1006.4
20260505014303 22 279 14.5 35.4 0.00 0.00 0.00 44 1006.3
20260505012803 22 272 14.5 37.0 0.00 0.00 0.00 44 1006.4
20260505012304 22 265 12.9 29.0 0.00 0.00 0.00 43 1006.3
20260505011803 22 286 22.5 38.6 0.00 0.00 0.00 43 1006.4
20260505011303 22 282 19.3 40.2 0.00 0.00 0.00 43 1006.5
20260505010803 22 307 14.5 33.8 0.00 0.00 0.00 43 1006.3
20260505005803 22 293 11.3 37.0 0.00 0.00 0.00 44 1006.5
20260505005303 22 267 22.5 41.8 0.00 0.00 0.00 43 1006.4
20260505004803 22 267 20.9 38.6 0.00 0.00 0.00 43 1006.6
20260505004303 22 299 20.9 35.4 0.00 0.00 0.00 43 1006.6
20260505003803 22 278 19.3 37.0 0.00 0.00 0.00 43 1006.5
20260505002803 22 281 19.3 37.0 0.00 0.00 0.00 42 1006.6
20260505002304 22 288 20.9 46.7 0.00 0.00 0.00 42 1006.6
20260505001802 22 299 19.3 37.0 0.00 0.00 0.00 42 1006.4
20260505001304 22 290 20.9 46.7 0.00 0.00 0.00 42 1006.5
20260505000803 22 287 17.7 40.2 0.00 0.00 0.00 41 1006.5
20260505000302 22 272 27.4 40.2 0.00 0.00 0.00 41 1006.5
20260504235803 23 267 19.3 37.0 0.00 0.00 0.00 40 1006.5
20260504235304 23 267 17.7 32.2 0.00 0.00 0.00 40 1006.6
20260504234803 23 258 17.7 38.6 0.00 0.00 0.00 40 1006.6
20260504234303 23 251 14.5 32.2 0.00 0.00 0.00 39 1006.7
20260504233802 23 290 16.1 37.0 0.00 0.00 0.00 40 1006.5
20260504233304 23 269 19.3 38.6 0.00 0.00 0.00 41 1006.5
20260504232802 23 278 19.3 40.2 0.00 0.00 0.00 40 1006.5
20260504231802 23 262 20.9 40.2 0.00 0.00 0.00 40 1006.5
20260504231303 23 267 19.3 38.6 0.00 0.00 0.00 40 1006.5
20260504230803 23 289 22.5 46.7 0.00 0.00 0.00 41 1006.6
20260504225803 22 266 16.1 45.1 0.00 0.00 0.00 40 1006.7
20260504225304 22 284 24.1 41.8 0.00 0.00 0.00 40 1006.6
20260504224803 22 280 20.9 56.3 0.00 0.00 0.00 40 1006.9
20260504223803 22 269 25.7 38.6 0.00 0.00 0.00 41 1006.8
20260504223303 22 276 22.5 37.0 0.00 0.00 0.00 41 1007.0
20260504222803 22 270 19.3 33.8 0.00 0.00 0.00 41 1007.2
20260504222304 22 273 22.5 45.1 0.00 0.00 0.00 41 1007.1
20260504221303 22 263 17.7 37.0 0.00 0.00 0.00 41 1007.2
20260504220803 22 286 14.5 37.0 0.00 0.00 0.00 41 1007.3
20260504220303 22 288 19.3 41.8 0.00 0.00 0.00 42 1007.2
20260504215803 22 305 11.3 41.8 0.00 0.00 0.00 42 1007.3
20260504215304 22 259 19.3 33.8 0.00 0.00 0.00 42 1007.4
20260504214303 22 285 20.9 35.4 0.00 0.00 0.00 42 1007.4
20260504213303 22 296 11.3 24.1 0.00 0.00 0.00 42 1007.6
20260504212803 21 243 19.3 37.0 0.00 0.00 0.00 43 1007.7